SCP
-0 -0 0 0 0 0 -0 -0 -0 0 0 0 0 0 0 0 -0 0 0 0 0 -0 0 0 0 0 -0 -0 -0 -0 -0 0 -0 -0 -0 -0 0 0 0 0 0 0 0
0 0 0 0 0 0 -0 0 -0 0 0 0 0 0 0 0 0 0 0 0 0 0 -0 0 0 0 0 -0 -0 -0 -0 -0 -0 -0 0 -0 -0 0 0 0 0 0 0
-0 0 0 0 0 0 -0 0 0 -0 0 0 0 0 0 0 0 0 0 0 0 0 -0 -0 0 0 -0 -0 0 -0 0 -0 -0 -0 0 -0 -0 -0 -0 0 0 0 0
-0 0 -0 0 -0 -0 0 0 0 0 0 0 0 0 0 0 0 0 0 0 0 0 0 0 -0 0 -0 -0 0 0 0 -0 -0 0 0 0 0 0 -0 -0 0 0 0
-0 0 0 -0 -0 0 0 0 0 0 0 0 0 0 0 0 0 0 0 0 0 0 0 0 0 0 0 0 0 0 -0 0 0 0 0 0 0 0 -0 0 -0 0 0
-0 0 0 0 0 -0 -0 0 0 0 0 0 0 0 0 0 0 0 0 0 0 0 0 0 0 0 0 0 0 0 0 0 0 0 -0 0 -0 -0 -0 -0 0 0 -0
-0 0 0 0 -0 -0 0 0 0 0 -0 0 0 0 0 0 0 0 0 0 0 0 0 0 0 0 0 -0 -0 0 -0 0 0 -0 0 0 0 -0 0 -0 0 0 0
-0 -0 -0 -0 -0 -0 0 0 0 0 -0 0 0 0 0 0 0 0 0 0 0 0 0 0 0 0 0 -0 0 0 0 0 0 0 -0 -0 -0 0 0 0 0 -0 0
-0 -0 -0 -0 -0 -0 0 -0 -0 -0 -0 -0 0 0 0 0 0 0 0 0 0 0 0 0 0 0 -0 0 0 0 0 0 0 0 0 0 0 0 0 0 0 0 0
0 -0 -0 -0 -0 -0 0 -0 -0 -0 -0 -0 -0 0 0 0 0 0 0 0 0 0 0 0 0 0 0 0 0 0 0 0 0 0 0 0 0 0 0 0 0 0 0
0 -0 -0 -0 -0 -0 -0 -0 -0 -0 -0 -0 -0 0 0 0 0 0 0 0 0 0 0 0 0 0 0 0 0 0 0 0 0 0 0 0 0 0 0 0 0 0 0
0 -0 -0 -0 -0 0 0 -0 -0 0 -0 -0 0 0 0 0 0 0 0 0 0 0 0 0 0 0 0 0 0 0 0 0 0 0 0 0 0 0 0 0 0 0 0
0 -0 -0 -0 -0 0 0 0 -0 -0 0 -0 -0 0 0 0 0 0 0 0 0 0 0 0 0 0 0 0 0 0 0 0 0 0 0 0 0 0 0 0 0 0 0
0 0 0 -0 -0 -0 0 0 -0 -0 -0 -0 -0 -0 -0 -0 -0 -0 0 0 0 0 0 0 0 0 0 0 0 0 0 0 0 0 0 0 0 0 0 1 1 1 1
0 0 0 0 -0 -0 -0 -0 -0 -0 -0 -0 -0 -0 0 0 0 0 0 0 0 0 0 0 0 0 0 0 0 0 0 0 0 0 0 0 0 0 0 1 1 1 1
0 0 0 -0 -0 -0 -0 0 0 0 0 0 -0 0 0 0 0 0 -0 -0 0 0 0 0 0 0 0 0 0 0 0 0 0 0 0 0 0 0 0 0 0 0 1
0 0 0 1 0 -0 -0 -0 -0 0 0 0 0 0 0 0 -0 0 0 -0 0 0 0 0 0 0 0 0 0 0 0 0 1 1 1 1 1 1 1 0 0 0 0
0 0 0 0 0 0 0 0 0 0 0 0 0 0 -0 -0 -0 -0 -0 -0 0 0 0 0 0 0 1 0 0 0 1 1 1 1 1 1 1 1 1 1 1 1 1
0 0 0 0 0 0 0 0 0 0 0 0 0 0 0 0 0 0 0 0 0 0 1 1 1 1 0 0 0 0 0 0 0 0 0 1 1 0 0 1 1 1 1
0 0 0 0 0 0 1 0 0 0 0 0 0 0 0 0 0 0 0 1 1 1 1 1 1 0 0 0 0 0 0 0 0 0 0 0 0 0 0 0 0 0 0
0 0 0 0 0 0 0 1 0 0 0 0 0 0 0 0 0 1 1 1 1 1 1 0 0 0 0 0 0 0 0 0 0 0 0 0 0 0 0 0 0 0 0
0 0 0 0 0 0 0 0 1 1 1 1 1 1 1 1 1 1 1 1 1 1 0 0 0 0 0 0 0 0 0 0 0 0 0 0 0 0 0 0 0 0 0
0 0 0 0 0 0 0 0 1 1 1 1 1 1 2 2 2 2 2 1 0 0 0 0 0 0 0 0 0 0 0 0 0 0 0 0 0 0 0 0 0 0 0
0 0 0 0 0 0 0 0 0 1 1 2 2 2 1 0 0 0 0 0 0 0 0 0 0 0 0 0 0 0 0 0 0 0 0 0 0 0 0 0 0 0 0
0 0 0 0 0 0 1 0 1 1 1 2 2 2 0 0 0 0 0 0 0 0 0 0 0 0 0 0 0 0 0 0 0 -0 0 0 0 0 0 0 0 0 0
-0 0 0 0 0 0 0 1 1 1 1 2 1 0 0 0 0 0 0 0 0 0 0 0 0 0 0 0 0 0 -0 -0 -0 -0 0 0 0 0 0 0 0 0 0
Wind_Speed_500mb
47 43 48 48 51 53 55 53 48 40 40 38 40 39 35 37 36 32 31 26 21 14 13 12 6 6 9 5 5 5 11 15 13 11 13 13 19 30 37 32 31 30 28
44 45 50 52 56 49 50 53 49 45 41 41 40 38 35 40 37 35 31 28 24 16 14 14 9 6 6 6 8 10 11 13 14 14 13 8 17 24 31 35 41 36 28
55 50 51 58 61 59 49 47 46 45 43 40 35 35 31 36 42 42 35 30 24 19 17 14 13 12 10 10 11 9 9 14 14 14 11 7 11 11 25 26 37 40 33
53 54 50 55 56 55 49 44 40 42 45 40 37 39 32 34 43 44 40 32 26 23 19 14 11 15 13 12 9 12 11 4 5 11 18 23 18 7 11 20 32 40 39
43 52 58 53 52 49 47 42 38 38 45 44 41 35 36 28 32 42 41 37 29 25 21 18 16 16 17 15 11 10 12 13 11 15 12 20 24 21 16 15 14 33 34
51 47 42 39 46 48 41 44 38 38 42 45 40 37 34 29 31 43 38 34 30 28 26 19 15 17 17 19 16 17 14 12 12 14 16 6 6 14 16 17 18 19 30
44 41 40 45 50 52 55 40 46 39 43 47 42 39 34 31 28 40 39 34 30 27 26 24 20 17 18 19 19 19 16 14 11 15 17 16 10 13 13 12 13 15 21
40 41 44 45 48 47 44 52 44 45 43 46 43 39 37 36 32 38 43 37 33 25 23 27 28 24 22 21 21 22 17 16 12 10 14 17 17 16 15 16 11 13 15
36 43 46 42 42 42 29 36 56 50 44 42 40 39 39 40 35 38 42 40 35 27 26 24 23 23 21 22 21 23 19 17 15 14 15 15 16 18 18 18 21 11 11
25 43 50 52 50 56 37 25 20 41 46 43 41 40 38 39 38 39 46 41 36 32 24 26 27 23 20 22 21 15 17 17 16 16 16 15 17 19 20 22 20 24 21
14 24 38 50 53 53 60 37 34 30 40 46 42 41 41 40 40 40 42 43 37 33 32 26 25 22 15 18 18 17 19 20 21 23 26 18 23 26 24 23 24 26 30
5 13 26 35 40 52 58 51 35 36 37 41 44 41 41 41 43 45 44 41 38 37 33 29 28 25 21 24 24 21 20 24 28 27 27 27 28 30 29 30 31 30 30
4 11 17 26 34 46 53 62 42 28 34 42 44 41 41 40 40 41 42 46 42 38 36 34 30 30 31 30 30 28 29 32 33 33 33 33 33 32 32 33 34 34 35
3 8 18 23 24 34 46 54 62 47 39 40 43 43 40 39 39 39 39 43 46 40 37 35 34 35 36 35 32 33 37 35 33 33 34 35 37 40 38 38 37 35 36
15 11 14 22 26 24 28 31 32 35 35 36 38 38 35 35 40 43 42 43 47 44 41 39 37 34 32 29 25 26 29 31 32 34 38 40 40 41 43 44 46 44 40
20 16 7 13 23 27 29 30 30 31 33 31 31 33 32 34 39 41 40 41 42 38 36 33 28 27 27 24 24 29 35 37 39 39 39 41 45 44 42 44 45 48 51
25 17 5 3 11 22 23 29 31 31 35 33 32 32 32 33 34 34 36 37 35 32 30 28 28 27 26 26 26 31 36 38 40 43 45 47 51 52 51 52 49 48 50
24 21 12 8 5 7 19 27 30 34 37 38 36 34 32 31 32 34 34 32 33 32 30 29 28 31 33 29 29 35 37 40 43 46 46 47 50 53 55 57 57 56 56
23 23 23 11 10 10 7 20 32 37 38 40 40 39 36 35 35 37 34 32 33 34 35 34 34 35 37 35 34 33 35 40 44 49 54 58 61 62 63 66 67 66 66
31 21 14 17 11 14 15 16 23 36 43 41 40 41 40 38 38 36 35 35 36 38 38 39 36 35 34 37 36 38 41 46 50 55 59 62 63 63 61 64 68 70 70
30 31 25 8 7 11 16 15 17 22 36 42 43 43 45 46 43 41 42 40 41 40 36 35 38 36 35 34 34 36 40 45 49 54 58 60 63 64 63 64 65 66 60
27 23 23 21 15 16 12 13 20 19 23 34 41 44 42 43 45 46 48 51 46 41 40 36 32 31 28 27 28 31 34 41 46 51 53 57 58 58 59 62 63 58 57
37 28 18 19 20 19 20 28 24 19 25 26 23 34 37 39 39 39 46 50 47 43 39 34 29 25 23 22 21 23 26 31 41 45 45 44 44 47 50 46 47 39 42
44 39 30 18 16 23 23 20 22 32 32 29 30 32 34 34 40 39 38 35 32 36 33 27 23 21 18 14 14 14 21 32 45 45 31 29 31 32 30 25 25 31 37
52 48 43 35 27 21 23 27 23 25 29 30 39 49 57 63 49 47 43 38 23 11 22 26 20 16 13 11 6 12 23 33 43 48 33 27 26 27 23 23 27 27 31
66 58 53 52 44 37 31 31 27 25 31 39 43 54 66 67 63 61 53 25 29 47 27 28 17 13 12 6 5 12 19 28 35 44 48 34 30 27 25 26 30 21 24
Wind_Direction_500mb
224 223 225 225 231 234 232 227 221 224 221 215 217 223 222 212 208 200 202 206 208 207 215 215 245 230 265 253 256 287 297 294 280 217 248 237 221 233 235 235 235 228 236
225 228 229 229 232 237 235 231 225 222 221 220 219 228 227 215 210 203 208 209 211 222 229 220 230 193 201 244 276 277 305 278 267 275 250 253 242 236 239 246 234 233 245
226 227 227 232 239 230 226 232 229 222 220 221 219 227 221 217 212 208 209 212 215 225 222 212 217 224 243 274 254 258 281 282 262 248 223 235 247 253 256 253 231 230 238
226 227 229 228 220 219 219 227 230 225 219 216 216 224 223 222 215 213 212 215 219 215 213 213 224 223 241 262 262 277 254 275 279 256 247 244 259 267 279 254 241 241 246
212 216 221 218 210 213 216 221 229 227 221 215 220 223 225 229 221 214 215 213 217 214 216 228 235 245 253 253 269 273 261 275 263 249 275 252 252 266 256 269 269 245 242
219 217 215 208 209 210 210 222 226 228 223 219 224 225 226 232 224 211 214 213 221 223 224 230 246 247 260 264 270 266 266 267 259 255 244 254 258 259 261 268 280 255 251
201 199 199 208 214 213 211 212 225 224 225 220 222 225 227 229 226 205 212 216 218 224 232 238 245 258 262 262 272 273 279 282 277 272 249 245 267 249 274 279 275 273 267
204 200 205 208 213 211 217 216 223 218 230 224 223 224 225 228 226 213 206 214 224 237 246 248 245 262 260 263 273 271 277 286 274 271 250 249 260 259 269 271 273 289 283
199 199 198 200 208 192 199 217 225 225 226 225 223 222 221 223 228 215 210 219 229 243 250 248 244 254 252 267 278 271 271 278 267 261 250 252 255 264 263 260 255 269 271
209 201 197 201 207 198 200 219 208 216 221 226 226 224 220 220 225 220 215 223 235 240 247 249 251 244 262 269 264 270 275 276 272 267 260 262 271 273 274 265 259 254 259
203 205 201 206 208 208 214 222 228 222 220 222 224 226 224 221 221 221 216 221 231 236 242 251 253 248 260 257 269 270 281 279 278 274 268 278 285 276 271 269 266 264 269
281 196 202 198 202 205 216 218 229 212 217 219 226 229 226 226 225 225 221 221 227 232 237 243 241 247 256 261 262 273 278 275 275 282 280 274 274 271 266 263 269 269 267
338 201 193 205 207 205 211 214 208 206 216 219 223 226 227 228 229 227 224 225 225 229 231 237 240 250 259 268 268 270 272 278 276 275 272 270 267 268 266 270 269 269 268
347 246 224 210 204 208 213 219 227 234 237 225 225 228 229 230 231 230 226 225 224 227 233 238 246 251 264 267 264 271 279 280 276 276 275 276 271 270 270 268 268 267 264
348 327 275 250 227 218 217 226 226 226 228 228 231 236 235 232 227 225 223 221 222 227 233 239 247 256 258 257 262 270 273 274 277 278 281 280 280 278 271 267 267 266 262
356 349 315 264 247 237 234 228 223 220 223 226 229 228 226 225 220 218 218 219 219 222 227 232 236 240 247 256 257 263 272 277 278 282 280 278 275 275 275 271 267 266 264
358 355 339 59 237 244 237 244 239 226 219 223 227 228 221 217 212 206 205 207 209 212 217 220 228 236 246 255 264 270 273 274 279 279 277 278 276 277 277 276 271 268 265
12 14 1 301 283 258 235 226 229 233 227 221 225 222 218 216 211 207 206 205 207 214 219 225 235 245 252 257 258 266 267 271 275 276 274 277 278 276 277 275 272 269 268
15 24 25 1 311 278 261 230 221 226 227 227 228 227 221 217 212 214 214 213 216 221 228 236 246 253 261 263 267 270 275 279 281 280 280 282 281 279 276 273 270 268 267
16 19 28 20 340 272 252 247 235 229 229 226 228 232 230 225 228 224 219 224 230 237 245 250 256 251 256 262 268 274 279 284 285 286 286 286 285 282 276 270 270 270 268
4 15 15 338 334 310 263 245 243 240 233 230 229 227 228 230 229 229 235 235 240 247 251 255 254 257 261 267 274 281 285 288 290 290 290 288 285 282 279 274 268 266 269
356 354 351 357 342 285 283 274 257 248 241 236 232 232 229 233 235 237 239 241 240 245 244 241 246 248 257 271 282 292 299 303 304 302 299 292 284 282 279 271 269 268 260
340 341 332 343 348 331 301 265 260 255 242 238 235 228 223 225 229 233 241 245 256 250 236 223 226 241 251 267 289 302 309 321 331 320 309 304 298 289 283 269 258 260 257
322 324 323 308 329 336 329 319 301 265 250 244 230 206 213 221 219 217 215 228 257 257 234 224 222 230 244 262 285 315 341 350 355 348 333 325 324 321 308 282 258 253 250
306 306 302 299 285 297 315 303 285 273 265 246 228 234 228 236 215 207 207 216 197 203 256 243 223 217 223 253 275 333 351 3 8 8 354 345 338 333 317 295 279 275 266
294 292 287 286 285 276 283 291 292 276 261 254 240 236 235 225 207 196 180 182 269 260 244 228 214 216 227 226 314 350 356 6 13 23 26 6 346 339 321 304 295 287 274
Wind_Speed_850mb
47 43 48 48 51 53 55 53 48 40 40 38 40 39 35 37 36 32 31 26 21 14 13 12 6 6 9 5 5 5 11 15 13 11 13 13 19 30 37 32 31 30 28
44 45 50 52 56 49 50 53 49 45 41 41 40 38 35 40 37 35 31 28 24 16 14 14 9 6 6 6 8 10 11 13 14 14 13 8 17 24 31 35 41 36 28
55 50 51 58 61 59 49 47 46 45 43 40 35 35 31 36 42 42 35 30 24 19 17 14 13 12 10 10 11 9 9 14 14 14 11 7 11 11 25 26 37 40 33
53 54 50 55 56 55 49 44 40 42 45 40 37 39 32 34 43 44 40 32 26 23 19 14 11 15 13 12 9 12 11 4 5 11 18 23 18 7 11 20 32 40 39
43 52 58 53 52 49 47 42 38 38 45 44 41 35 36 28 32 42 41 37 29 25 21 18 16 16 17 15 11 10 12 13 11 15 12 20 24 21 16 15 14 33 34
51 47 42 39 46 48 41 44 38 38 42 45 40 37 34 29 31 43 38 34 30 28 26 19 15 17 17 19 16 17 14 12 12 14 16 6 6 14 16 17 18 19 30
44 41 40 45 50 52 55 40 46 39 43 47 42 39 34 31 28 40 39 34 30 27 26 24 20 17 18 19 19 19 16 14 11 15 17 16 10 13 13 12 13 15 21
40 41 44 45 48 47 44 52 44 45 43 46 43 39 37 36 32 38 43 37 33 25 23 27 28 24 22 21 21 22 17 16 12 10 14 17 17 16 15 16 11 13 15
36 43 46 42 42 42 29 36 56 50 44 42 40 39 39 40 35 38 42 40 35 27 26 24 23 23 21 22 21 23 19 17 15 14 15 15 16 18 18 18 21 11 11
25 43 50 52 50 56 37 25 20 41 46 43 41 40 38 39 38 39 46 41 36 32 24 26 27 23 20 22 21 15 17 17 16 16 16 15 17 19 20 22 20 24 21
14 24 38 50 53 53 60 37 34 30 40 46 42 41 41 40 40 40 42 43 37 33 32 26 25 22 15 18 18 17 19 20 21 23 26 18 23 26 24 23 24 26 30
5 13 26 35 40 52 58 51 35 36 37 41 44 41 41 41 43 45 44 41 38 37 33 29 28 25 21 24 24 21 20 24 28 27 27 27 28 30 29 30 31 30 30
4 11 17 26 34 46 53 62 42 28 34 42 44 41 41 40 40 41 42 46 42 38 36 34 30 30 31 30 30 28 29 32 33 33 33 33 33 32 32 33 34 34 35
3 8 18 23 24 34 46 54 62 47 39 40 43 43 40 39 39 39 39 43 46 40 37 35 34 35 36 35 32 33 37 35 33 33 34 35 37 40 38 38 37 35 36
15 11 14 22 26 24 28 31 32 35 35 36 38 38 35 35 40 43 42 43 47 44 41 39 37 34 32 29 25 26 29 31 32 34 38 40 40 41 43 44 46 44 40
20 16 7 13 23 27 29 30 30 31 33 31 31 33 32 34 39 41 40 41 42 38 36 33 28 27 27 24 24 29 35 37 39 39 39 41 45 44 42 44 45 48 51
25 17 5 3 11 22 23 29 31 31 35 33 32 32 32 33 34 34 36 37 35 32 30 28 28 27 26 26 26 31 36 38 40 43 45 47 51 52 51 52 49 48 50
24 21 12 8 5 7 19 27 30 34 37 38 36 34 32 31 32 34 34 32 33 32 30 29 28 31 33 29 29 35 37 40 43 46 46 47 50 53 55 57 57 56 56
23 23 23 11 10 10 7 20 32 37 38 40 40 39 36 35 35 37 34 32 33 34 35 34 34 35 37 35 34 33 35 40 44 49 54 58 61 62 63 66 67 66 66
31 21 14 17 11 14 15 16 23 36 43 41 40 41 40 38 38 36 35 35 36 38 38 39 36 35 34 37 36 38 41 46 50 55 59 62 63 63 61 64 68 70 70
30 31 25 8 7 11 16 15 17 22 36 42 43 43 45 46 43 41 42 40 41 40 36 35 38 36 35 34 34 36 40 45 49 54 58 60 63 64 63 64 65 66 60
27 23 23 21 15 16 12 13 20 19 23 34 41 44 42 43 45 46 48 51 46 41 40 36 32 31 28 27 28 31 34 41 46 51 53 57 58 58 59 62 63 58 57
37 28 18 19 20 19 20 28 24 19 25 26 23 34 37 39 39 39 46 50 47 43 39 34 29 25 23 22 21 23 26 31 41 45 45 44 44 47 50 46 47 39 42
44 39 30 18 16 23 23 20 22 32 32 29 30 32 34 34 40 39 38 35 32 36 33 27 23 21 18 14 14 14 21 32 45 45 31 29 31 32 30 25 25 31 37
52 48 43 35 27 21 23 27 23 25 29 30 39 49 57 63 49 47 43 38 23 11 22 26 20 16 13 11 6 12 23 33 43 48 33 27 26 27 23 23 27 27 31
66 58 53 52 44 37 31 31 27 25 31 39 43 54 66 67 63 61 53 25 29 47 27 28 17 13 12 6 5 12 19 28 35 44 48 34 30 27 25 26 30 21 24
Wind_Direction_850mb
224 223 225 225 231 234 232 227 221 224 221 215 217 223 222 212 208 200 202 206 208 207 215 215 245 230 265 253 256 287 297 294 280 217 248 237 221 233 235 235 235 228 236
225 228 229 229 232 237 235 231 225 222 221 220 219 228 227 215 210 203 208 209 211 222 229 220 230 193 201 244 276 277 305 278 267 275 250 253 242 236 239 246 234 233 245
226 227 227 232 239 230 226 232 229 222 220 221 219 227 221 217 212 208 209 212 215 225 222 212 217 224 243 274 254 258 281 282 262 248 223 235 247 253 256 253 231 230 238
226 227 229 228 220 219 219 227 230 225 219 216 216 224 223 222 215 213 212 215 219 215 213 213 224 223 241 262 262 277 254 275 279 256 247 244 259 267 279 254 241 241 246
212 216 221 218 210 213 216 221 229 227 221 215 220 223 225 229 221 214 215 213 217 214 216 228 235 245 253 253 269 273 261 275 263 249 275 252 252 266 256 269 269 245 242
219 217 215 208 209 210 210 222 226 228 223 219 224 225 226 232 224 211 214 213 221 223 224 230 246 247 260 264 270 266 266 267 259 255 244 254 258 259 261 268 280 255 251
201 199 199 208 214 213 211 212 225 224 225 220 222 225 227 229 226 205 212 216 218 224 232 238 245 258 262 262 272 273 279 282 277 272 249 245 267 249 274 279 275 273 267
204 200 205 208 213 211 217 216 223 218 230 224 223 224 225 228 226 213 206 214 224 237 246 248 245 262 260 263 273 271 277 286 274 271 250 249 260 259 269 271 273 289 283
199 199 198 200 208 192 199 217 225 225 226 225 223 222 221 223 228 215 210 219 229 243 250 248 244 254 252 267 278 271 271 278 267 261 250 252 255 264 263 260 255 269 271
209 201 197 201 207 198 200 219 208 216 221 226 226 224 220 220 225 220 215 223 235 240 247 249 251 244 262 269 264 270 275 276 272 267 260 262 271 273 274 265 259 254 259
203 205 201 206 208 208 214 222 228 222 220 222 224 226 224 221 221 221 216 221 231 236 242 251 253 248 260 257 269 270 281 279 278 274 268 278 285 276 271 269 266 264 269
281 196 202 198 202 205 216 218 229 212 217 219 226 229 226 226 225 225 221 221 227 232 237 243 241 247 256 261 262 273 278 275 275 282 280 274 274 271 266 263 269 269 267
338 201 193 205 207 205 211 214 208 206 216 219 223 226 227 228 229 227 224 225 225 229 231 237 240 250 259 268 268 270 272 278 276 275 272 270 267 268 266 270 269 269 268
347 246 224 210 204 208 213 219 227 234 237 225 225 228 229 230 231 230 226 225 224 227 233 238 246 251 264 267 264 271 279 280 276 276 275 276 271 270 270 268 268 267 264
348 327 275 250 227 218 217 226 226 226 228 228 231 236 235 232 227 225 223 221 222 227 233 239 247 256 258 257 262 270 273 274 277 278 281 280 280 278 271 267 267 266 262
356 349 315 264 247 237 234 228 223 220 223 226 229 228 226 225 220 218 218 219 219 222 227 232 236 240 247 256 257 263 272 277 278 282 280 278 275 275 275 271 267 266 264
358 355 339 59 237 244 237 244 239 226 219 223 227 228 221 217 212 206 205 207 209 212 217 220 228 236 246 255 264 270 273 274 279 279 277 278 276 277 277 276 271 268 265
12 14 1 301 283 258 235 226 229 233 227 221 225 222 218 216 211 207 206 205 207 214 219 225 235 245 252 257 258 266 267 271 275 276 274 277 278 276 277 275 272 269 268
15 24 25 1 311 278 261 230 221 226 227 227 228 227 221 217 212 214 214 213 216 221 228 236 246 253 261 263 267 270 275 279 281 280 280 282 281 279 276 273 270 268 267
16 19 28 20 340 272 252 247 235 229 229 226 228 232 230 225 228 224 219 224 230 237 245 250 256 251 256 262 268 274 279 284 285 286 286 286 285 282 276 270 270 270 268
4 15 15 338 334 310 263 245 243 240 233 230 229 227 228 230 229 229 235 235 240 247 251 255 254 257 261 267 274 281 285 288 290 290 290 288 285 282 279 274 268 266 269
356 354 351 357 342 285 283 274 257 248 241 236 232 232 229 233 235 237 239 241 240 245 244 241 246 248 257 271 282 292 299 303 304 302 299 292 284 282 279 271 269 268 260
340 341 332 343 348 331 301 265 260 255 242 238 235 228 223 225 229 233 241 245 256 250 236 223 226 241 251 267 289 302 309 321 331 320 309 304 298 289 283 269 258 260 257
322 324 323 308 329 336 329 319 301 265 250 244 230 206 213 221 219 217 215 228 257 257 234 224 222 230 244 262 285 315 341 350 355 348 333 325 324 321 308 282 258 253 250
306 306 302 299 285 297 315 303 285 273 265 246 228 234 228 236 215 207 207 216 197 203 256 243 223 217 223 253 275 333 351 3 8 8 354 345 338 333 317 295 279 275 266
294 292 287 286 285 276 283 291 292 276 261 254 240 236 235 225 207 196 180 182 269 260 244 228 214 216 227 226 314 350 356 6 13 23 26 6 346 339 321 304 295 287 274